Location: Unspecified
(0.0000°N, 0.0000°E)
Time: 13:56:43
(UTC+02:00)

Daily predictions for brighter satellites

Satellite Brightness Start Highest point End
(mag) Time Altitude Azimuth Time Altitude Azimuth Time Altitude Azimuth
ARIANE 5 R/B 3.9 19:39:22 10° WNW 19:44:10 69° NNE 20:30:34 10° E
ARIANE 5 R/B 3.9 19:39:22 10° WNW 19:44:11 69° NNE 20:30:34 10° E
ARIANE 5 R/B 3.9 19:39:21 10° WNW 19:44:11 69° NNE 20:30:34 10° E
Ariane 44LP R/B 3.2 20:00:19 10° W 20:03:16 75° S 20:15:43 10° E
Cosmos 1452 Rocket 3.5 20:12:41 10° N 20:17:54 68° ENE 20:23:09 10° SSE
Okean 1-7 Rocket 4.1 20:15:23 10° SSW 20:19:47 64° W 20:24:07 10° N
Cosmos 1633 3.8 20:16:53 10° NNW 20:20:23 47° W 20:23:55 10° SSW
SJ-6B 3.8 20:19:29 10° SE 20:22:39 26° ENE 20:25:48 10° NNE
GPS 2-14 Rocket1 3.4 20:19:45 10° W 20:23:42 54° NNW 20:27:33 10° NE
Ariane H10 4.3 20:09:57 10° W 20:26:17 64° S 20:29:58 10° ESE
Cosmos 1725 Rocket 4.4 20:23:56 10° NNE 20:29:39 40° E 20:35:22 10° SSE
Meteor 1-12 Rocket 4.4 20:26:02 10° N 20:31:34 55° E 20:37:04 10° SSE
Resurs 01 Rocket 3.0 20:28:45 10° SE 20:32:03 21° ENE 20:35:21 10° NNE
Abrixas 4.4 20:33:31 10° SSE 20:35:21 15° SE 20:36:33 12° ESE
Spelda 4.4 20:31:48 10° WNW 20:35:40 39° N 20:37:52 10° ENE
Hubble Space Telescope 2.4 20:33:12 10° NNW 20:36:35 24° NNE 20:39:59 10° E
Cosmos 2016 Rocket 4.0 20:30:30 10° N 20:36:40 83° E 20:42:48 10° S
Cosmos 1603 3.6 20:32:24 10° S 20:38:04 75° ESE 20:43:39 10° NNE
Aureole 2 Rocket 3.8 20:37:10 10° SSW 20:41:23 52° W 20:45:18 10° N
Cosmos 1484 Rocket 2.7 20:38:41 10° SSE 20:42:21 59° E 20:46:01 10° N
Delta 7925 Rocket 4.3 20:40:48 10° WSW 20:46:10 48° NNW 20:50:45 10° NE
Tiangong 1 2.6 20:49:31 10° WNW 20:52:22 31° SW 20:54:45 13° SSE
Cosmos 1500 4.1 20:50:21 10° NNE 20:53:45 29° E 20:55:30 20° SE
Okean 2 3.6 20:49:46 10° SSE 20:53:48 47° E 20:57:48 10° NNE
FREGAT/IRIS 3.0 20:52:04 16° SSE 20:54:18 45° E 20:57:20 10° N
Meteor 1-23 Rocket 4.1 20:50:25 10° S 20:55:58 68° E 21:01:34 10° NNE
GPS 2-05 Rocket1 4.5 20:53:46 10° S 20:55:39 17° SSE 20:55:39 17° SSE
Cosmos 1420 Rocket 3.9 20:51:20 10° N 20:56:32 80° ENE 21:01:44 10° SSE
Cosmos 1943 3.6 20:52:28 10° S 20:57:37 37° ESE 21:02:46 10° NE
ATLAS 3B R/B 2.9 20:50:57 10° SSW 20:58:25 69° ESE 21:06:03 10° NNE
Ariane H10+ 2.5 20:50:49 10° WSW 20:59:38 49° S 21:01:04 27° ESE
HJ-1C 3.8 20:58:36 25° SE 20:59:58 39° ENE 21:03:04 10° N
ARIANE DEB (SYLDA) 3.2 20:56:53 10° WNW 21:00:20 39° N 21:04:47 13° ENE
ARIANE 5 DEB (SYLDA 5A) 2.6 20:51:48 10° W 21:00:30 74° N 21:02:08 24° ENE
Cosmos 1844 Rocket 2.8 20:54:56 10° NNW 21:00:31 78° WSW 21:06:06 10° SSE
Meteor 2-4 Rocket 3.7 20:57:05 10° S 21:02:49 83° E 21:08:40 10° N
CZ-2C R/B 4.4 20:58:55 10° SSW 21:03:19 29° WSW 21:07:39 10° NW
Cosmos 2233 Rocket 4.2 20:58:36 10° NNE 21:04:29 48° E 21:09:50 12° SSE
MSX 4.2 21:00:23 10° S 21:06:05 68° WSW 21:11:46 10° NNW
SEDSat Delta rocket 4.2 21:05:06 10° WSW 21:09:32 46° NNW 21:14:34 10° NE
Lacrosse 4 Rocket 1.3 21:06:34 10° S 21:10:32 52° ESE 21:14:28 10° NNE
Blok-2BL 4.4 21:10:14 10° N 21:14:42 38° ENE 21:15:15 36° E
Cosmos 1975 3.8 21:11:47 10° NNW 21:15:36 46° W 21:19:28 10° SSW
Cosmos 1743 3.6 21:13:37 10° NNE 21:16:20 30° ENE 21:16:20 30° ENE
Skynet4D Del rocket 4.4 21:12:32 10° NW 21:17:51 37° NNE 21:20:07 26° ENE
Cosmos 1844 4.0 21:15:50 10° NNW 21:21:35 69° WSW 21:26:31 14° S
MINOTAUR IV R/B 4.4 21:20:47 10° NNW 21:25:14 85° ENE 21:26:51 40° SSE
Cosmos 2098 Rocket 3.8 21:20:07 10° N 21:25:15 84° W 21:31:49 10° S
Cosmos 1626 Rocket 3.6 21:25:22 46° SE 21:26:19 57° E 21:30:40 10° NNE
Cosmos 1190 Rocket 4.2 21:28:44 45° ESE 21:29:10 46° ESE 21:34:12 10° NNE
Cosmos 1606 Rocket 3.4 21:28:46 10° N 21:33:05 68° E 21:33:18 67° ESE
OAO 3 Rocket 4.0 21:28:56 10° WSW 21:33:37 49° NW 21:37:24 15° NE
Cosmos 1932 4.4 21:29:46 10° S 21:35:48 56° ESE 21:41:48 10° NE
Aurora 2 Rocket 4.5 21:36:37 10° SSW 21:37:17 14° SSW 21:37:17 14° SSW
Meteor 2-17 Rocket 4.3 21:34:37 10° N 21:40:46 84° E 21:43:47 32° S
Centaur D-1AR AC-38 3.8 21:39:16 10° NW 21:42:51 45° NNE 21:43:12 44° NE
USA 238 DEB 3.7 21:38:38 10° SSW 21:45:39 60° ESE 21:52:38 10° NE
USA 238 3.7 21:38:45 10° SSW 21:45:45 60° ESE 21:52:42 10° NE
Cosmos 1331 Rocket 4.3 21:41:27 10° N 21:45:39 48° NE 21:45:39 48° NE
deb Chang Zheng 4 4.0 21:43:06 10° NNE 21:46:20 50° NNE 21:46:20 50° NNE
ARIANE 5 R/B 3.8 12:23:00 10° W 21:50:00 67° NNW 21:52:32 38° ENE
Cosmos 2278 Rocket 2.9 21:47:21 10° NNW 21:52:49 51° WSW 21:55:14 31° SSW
Sylda 5 3.4 21:52:09 10° WSW 21:55:40 33° SW 21:55:40 33° SW
BLOCK DM-SL R/B 3.1 21:54:58 10° W 21:59:08 90° ESE 21:59:20 83° E
OTV 4 3.8 21:58:15 10° NW 21:58:43 14° NW 21:58:43 14° NW
ATLAS 3B CENTAUR R/B 2.7 21:58:07 10° NW 22:02:34 67° NE 22:03:30 61° ENE
Ariane H10 3.8 12:29:04 10° W 22:05:42 68° N 22:07:30 51° ENE
Resurs 01 Rocket 4.2 22:05:26 10° SW 22:08:15 17° WSW 22:11:10 10° WNW
Hubble Space Telescope 3.1 22:13:46 10° WNW 22:15:25 22° W 22:15:25 22° W
Centaur D-1AR AC-40 3.9 13:06:00 10° W 23:00:31 85° WSW 23:00:31 85° WSW
